TimeCST,TemperatureF,Dew PointF,Humidity,Sea Level PressureIn,VisibilityMPH,Wind Direction,Wind SpeedMPH,Gust SpeedMPH,PrecipitationIn,Events,Conditions,WindDirDegrees,DateUTC
12:15 AM,57.2,50.0,77,30.07,10.0,SE,5.8,-,N/A,,Overcast,130,2014-03-01 06:15:00
12:35 AM,57.2,50.0,77,30.07,10.0,SE,3.5,-,N/A,,Overcast,130,2014-03-01 06:35:00
12:55 AM,57.2,50.0,77,30.07,10.0,SE,5.8,-,N/A,,Overcast,130,2014-03-01 06:55:00
1:15 AM,57.2,50.0,77,30.07,10.0,SE,3.5,-,N/A,,Mostly Cloudy,130,2014-03-01 07:15:00
1:35 AM,57.2,50.0,77,30.06,10.0,SE,4.6,-,N/A,,Mostly Cloudy,130,2014-03-01 07:35:00
1:55 AM,55.4,50.0,82,30.06,10.0,SE,3.5,-,N/A,,Mostly Cloudy,130,2014-03-01 07:55:00
2:15 AM,55.4,50.0,82,30.05,10.0,ESE,3.5,-,N/A,,Mostly Cloudy,120,2014-03-01 08:15:00
2:35 AM,55.4,50.0,82,30.05,10.0,ESE,3.5,-,N/A,,Mostly Cloudy,120,2014-03-01 08:35:00
2:55 AM,55.4,50.0,82,30.05,10.0,ESE,3.5,-,N/A,,Mostly Cloudy,120,2014-03-01 08:55:00
3:15 AM,55.4,50.0,82,30.06,10.0,SE,3.5,-,N/A,,Overcast,140,2014-03-01 09:15:00
3:35 AM,55.4,50.0,82,30.06,10.0,SE,4.6,-,N/A,,Mostly Cloudy,140,2014-03-01 09:35:00
3:55 AM,55.4,51.8,88,30.06,10.0,SE,4.6,-,N/A,,Mostly Cloudy,130,2014-03-01 09:55:00
4:15 AM,55.4,50.0,82,30.07,10.0,SE,3.5,-,N/A,,Mostly Cloudy,130,2014-03-01 10:15:00
4:35 AM,55.4,51.8,88,30.08,10.0,Calm,Calm,-,N/A,,Mostly Cloudy,0,2014-03-01 10:35:00
4:55 AM,55.4,51.8,88,30.08,10.0,Calm,Calm,-,N/A,,Scattered Clouds,0,2014-03-01 10:55:00
5:15 AM,57.2,51.8,82,30.09,10.0,Calm,Calm,-,N/A,,Mostly Cloudy,0,2014-03-01 11:15:00
5:35 AM,57.2,51.8,82,30.10,10.0,Calm,Calm,-,N/A,,Mostly Cloudy,0,2014-03-01 11:35:00
5:55 AM,57.2,51.8,82,30.11,10.0,ESE,3.5,-,N/A,,Mostly Cloudy,110,2014-03-01 11:55:00
6:15 AM,57.2,51.8,82,30.12,10.0,Calm,Calm,-,N/A,,Mostly Cloudy,0,2014-03-01 12:15:00
6:35 AM,57.2,51.8,82,30.13,10.0,East,3.5,-,N/A,,Mostly Cloudy,90,2014-03-01 12:35:00
6:55 AM,57.2,51.8,82,30.13,10.0,East,4.6,-,N/A,,Mostly Cloudy,90,2014-03-01 12:55:00
7:15 AM,57.2,51.8,82,30.14,10.0,East,3.5,-,N/A,,Mostly Cloudy,80,2014-03-01 13:15:00
7:30 AM,57.2,51.8,82,30.15,10.0,East,3.5,-,N/A,,Mostly Cloudy,100,2014-03-01 13:30:00
7:55 AM,59.0,51.8,77,30.15,10.0,East,4.6,-,N/A,,Mostly Cloudy,90,2014-03-01 13:55:00
8:15 AM,60.8,53.6,77,30.16,10.0,ESE,3.5,-,N/A,,Scattered Clouds,110,2014-03-01 14:15:00
8:35 AM,62.6,53.6,72,30.16,10.0,Calm,Calm,-,N/A,,Scattered Clouds,0,2014-03-01 14:35:00
8:55 AM,66.2,55.4,68,30.17,10.0,SE,5.8,-,N/A,,Scattered Clouds,140,2014-03-01 14:55:00
9:15 AM,68.0,57.2,68,30.17,10.0,SE,5.8,-,N/A,,Scattered Clouds,140,2014-03-01 15:15:00
9:35 AM,68.0,57.2,68,30.18,10.0,SE,4.6,-,N/A,,Scattered Clouds,140,2014-03-01 15:35:00
9:55 AM,71.6,57.2,60,30.18,10.0,South,9.2,-,N/A,,Mostly Cloudy,170,2014-03-01 15:55:00
10:15 AM,69.8,57.2,64,30.18,10.0,South,9.2,-,N/A,,Mostly Cloudy,180,2014-03-01 16:15:00
10:35 AM,71.6,57.2,60,30.18,10.0,SSE,9.2,-,N/A,,Mostly Cloudy,160,2014-03-01 16:35:00
10:55 AM,73.4,59.0,61,30.18,10.0,SSE,10.4,-,N/A,,Overcast,150,2014-03-01 16:55:00
11:15 AM,75.2,59.0,57,30.17,10.0,SSE,11.5,-,N/A,,Scattered Clouds,160,2014-03-01 17:15:00
11:35 AM,75.2,59.0,57,30.17,10.0,South,8.1,-,N/A,,Mostly Cloudy,170,2014-03-01 17:35:00
11:55 AM,73.4,59.0,61,30.16,10.0,SSW,9.2,-,N/A,,Mostly Cloudy,200,2014-03-01 17:55:00
12:10 PM,75.2,59.0,57,30.15,10.0,SSW,9.2,-,N/A,,Mostly Cloudy,200,2014-03-01 18:10:00
12:35 PM,75.2,59.0,57,30.14,10.0,South,5.8,-,N/A,,Mostly Cloudy,190,2014-03-01 18:35:00
12:55 PM,77.0,59.0,54,30.13,10.0,SSW,8.1,-,N/A,,Mostly Cloudy,210,2014-03-01 18:55:00
1:15 PM,78.8,57.2,47,30.12,10.0,South,12.7,-,N/A,,Mostly Cloudy,170,2014-03-01 19:15:00
1:35 PM,78.8,57.2,47,30.11,10.0,South,9.2,-,N/A,,Scattered Clouds,170,2014-03-01 19:35:00
1:55 PM,78.8,55.4,44,30.10,10.0,SSW,8.1,17.3,N/A,,Scattered Clouds,200,2014-03-01 19:55:00
2:15 PM,78.8,55.4,44,30.10,10.0,SSW,10.4,-,N/A,,Clear,200,2014-03-01 20:15:00
2:35 PM,80.6,55.4,42,30.10,10.0,SSE,9.2,-,N/A,,Scattered Clouds,150,2014-03-01 20:35:00
2:55 PM,80.6,53.6,39,30.09,10.0,SE,8.1,-,N/A,,Scattered Clouds,130,2014-03-01 20:55:00
3:15 PM,78.8,57.2,47,30.09,10.0,SE,9.2,-,N/A,,Mostly Cloudy,130,2014-03-01 21:15:00
3:35 PM,80.6,57.2,45,30.09,10.0,SSE,11.5,-,N/A,,Mostly Cloudy,150,2014-03-01 21:35:00
3:55 PM,78.8,57.2,47,30.09,10.0,SE,9.2,-,N/A,,Scattered Clouds,130,2014-03-01 21:55:00
4:15 PM,77.0,57.2,50,30.09,10.0,SE,11.5,-,N/A,,Scattered Clouds,130,2014-03-01 22:15:00
4:35 PM,77.0,57.2,50,30.09,10.0,South,10.4,-,N/A,,Scattered Clouds,170,2014-03-01 22:35:00
4:55 PM,75.2,57.2,53,30.10,10.0,SE,10.4,-,N/A,,Clear,130,2014-03-01 22:55:00
5:15 PM,73.4,57.2,57,30.11,10.0,SE,9.2,-,N/A,,Clear,140,2014-03-01 23:15:00
5:35 PM,71.6,57.2,60,30.11,10.0,SE,10.4,-,N/A,,Clear,130,2014-03-01 23:35:00
5:55 PM,71.6,59.0,64,30.12,10.0,SE,8.1,-,N/A,,Clear,130,2014-03-01 23:55:00
6:15 PM,69.8,59.0,68,30.11,10.0,SE,8.1,-,N/A,,Clear,130,2014-03-02 00:15:00
6:35 PM,68.0,57.2,68,30.12,10.0,SE,4.6,-,N/A,,Scattered Clouds,130,2014-03-02 00:35:00
6:55 PM,66.2,59.0,78,30.13,10.0,SE,4.6,-,N/A,,Scattered Clouds,130,2014-03-02 00:55:00
7:15 PM,66.2,59.0,78,30.13,10.0,ESE,5.8,-,N/A,,Mostly Cloudy,120,2014-03-02 01:15:00
7:35 PM,66.2,59.0,78,30.13,10.0,SE,8.1,-,N/A,,Mostly Cloudy,130,2014-03-02 01:35:00
7:55 PM,64.4,59.0,83,30.13,10.0,SE,8.1,-,N/A,,Scattered Clouds,130,2014-03-02 01:55:00
8:15 PM,64.4,59.0,83,30.14,10.0,SSE,5.8,-,N/A,,Clear,150,2014-03-02 02:15:00
8:35 PM,64.4,59.0,83,30.14,10.0,SSE,5.8,-,N/A,,Clear,150,2014-03-02 02:35:00
8:55 PM,64.4,59.0,83,30.14,10.0,SE,6.9,-,N/A,,Clear,140,2014-03-02 02:55:00
9:15 PM,64.4,59.0,83,30.14,10.0,SE,5.8,-,N/A,,Clear,130,2014-03-02 03:15:00
9:35 PM,62.6,57.2,82,30.15,10.0,SE,5.8,-,N/A,,Clear,140,2014-03-02 03:35:00
9:55 PM,62.6,59.0,88,30.15,10.0,SE,6.9,-,N/A,,Clear,140,2014-03-02 03:55:00
10:15 PM,62.6,59.0,88,30.15,10.0,SE,5.8,-,N/A,,Clear,130,2014-03-02 04:15:00
10:35 PM,62.6,59.0,88,30.15,10.0,SE,5.8,-,N/A,,Clear,130,2014-03-02 04:35:00
10:55 PM,62.6,59.0,88,30.15,10.0,SE,4.6,-,N/A,,Mostly Cloudy,140,2014-03-02 04:55:00
11:15 PM,62.6,59.0,88,30.14,10.0,SE,4.6,-,N/A,,Mostly Cloudy,130,2014-03-02 05:15:00
11:35 PM,62.6,59.0,88,30.14,5.0,SE,5.8,-,N/A,,Overcast,130,2014-03-02 05:35:00
11:55 PM,62.6,59.0,88,30.13,2.5,SE,6.9,-,N/A,,Overcast,130,2014-03-02 05:55:00